[[{"header":{"parameterUnit":"m.s-1","parameterCategory":1,"la1":30.2991,"la2":30.254,"lo1":-89.0895,"lo2":-89.0444,"dy":0.0017,"dx":0.0017,"nx":28,"ny":28,"refTime":"2025-07-21T21:00:00:Z","depth":0,"parameterNumber":2,"parameterNumberName":"U-component_of_WINDS"},"data":[0,0,0,0,0,0,0,0,0,0,0,0,0,0,0,0,0,0,0,0,0,0,0,0,0,0,0,0,0,0,0,0,0,0,0,0,0,0,0,0,0,0,0,0,0,0,0,0,0,0,0,0,0,0,0,0,0,0,3.3772,3.3773,0,3.3862,3.3863,3.3864,3.3825,3.3823,3.3821,3.3819,3.3912,3.3917,3.3921,0,0,0,0,0,0,0,0,0,0,0,0,0,3.357,3.3574,3.3772,3.3773,3.3774,3.3862,3.3863,3.3864,3.3826,3.3823,3.382,3.3818,3.3911,3.3916,3.3922,0,0,0,0,0,0,0,0,0,0,0,0,0,3.3659,3.3575,3.3772,3.3765,3.3766,3.3862,3.3863,3.3865,3.3826,3.3823,3.3819,3.3816,3.3909,3.3916,3.3922,3.403,0,0,3.3943,3.3946,0,0,0,0,0,0,0,0,3.3654,3.3666,3.3765,3.3766,3.3767,3.3829,3.3826,3.392,3.3827,3.3803,3.3819,3.3815,3.3887,3.3896,3.392,3.4035,3.4039,3.3944,3.3948,3.3951,3.3953,0,0,0,0,0,0,0,3.3648,3.3662,3.3808,3.3767,3.3768,3.3759,3.3768,3.3844,3.3863,3.3805,3.3802,3.3814,3.3887,3.3913,3.3922,3.404,3.3944,3.395,3.3954,3.3957,3.425,3.4253,0,0,0,0,0,0,3.3641,3.3657,3.3805,3.381,3.3701,3.3766,3.3776,3.3812,3.3862,3.3866,3.3816,3.3811,3.3903,3.3914,3.3925,3.4054,3.3951,3.3957,3.3961,3.4246,3.425,3.4254,0,0,0,0,0,0,3.3637,3.3655,3.3801,3.3733,3.3751,3.3773,3.3814,3.3816,3.3842,3.387,3.3874,3.3839,3.3901,3.3915,3.4005,3.4057,3.396,3.3967,3.4242,3.4247,3.4252,3.4314,0,0,0,0,0,0,3.3631,3.3653,3.3693,3.3734,3.3755,3.3878,3.3817,3.382,3.3854,3.3848,3.3893,3.3897,3.39,3.3995,3.4011,3.4065,3.3972,3.4237,3.4244,3.4251,3.4307,3.4321,3.4332,0,0,0,0,0,3.3624,3.3707,3.3696,3.3714,3.3805,3.3881,3.3893,3.3894,3.3858,3.3899,3.3918,3.3896,3.4049,3.4004,3.4023,3.4079,3.4233,3.4242,3.425,3.4301,3.4318,3.4332,0,0,0,0,0,0,3.3671,3.3712,3.37,3.3798,3.3837,3.3874,3.3925,3.3911,3.3961,3.3954,3.3954,3.3964,3.4056,3.4077,3.4026,3.4187,3.4136,3.4149,3.4169,3.4185,3.4197,3.4189,3.3977,0,0,0,0,0,3.3693,3.3751,3.3784,3.3868,3.3888,3.3904,3.3937,3.3935,3.3974,3.399,3.4015,3.4056,3.4113,3.4151,3.4205,3.4311,3.4321,3.436,3.4372,3.4382,3.4392,3.4451,3.4468,3.4282,3.4282,3.4281,0,0,3.3738,3.3768,3.3804,3.3878,3.3907,3.3967,3.3917,3.3983,3.4028,3.4001,3.4085,3.4106,3.4151,3.425,3.4294,3.427,3.4447,3.4393,3.4401,3.4405,3.4461,3.4479,3.4494,3.4287,3.4286,3.4285,0,0,3.3851,3.388,3.3953,3.3984,3.403,3.4041,3.4059,3.41,3.4112,3.4198,3.4179,3.4234,3.4332,3.4365,3.4395,3.4526,3.4507,3.4544,3.4608,3.4666,3.468,3.4693,3.4739,3.4755,3.4554,3.4554,3.4554,0,3.3901,3.3991,3.3992,3.406,3.4093,3.4073,3.4147,3.4178,3.4239,3.4263,3.4235,3.436,3.4389,3.4495,3.4527,3.4552,3.4573,3.4537,3.4678,3.4691,3.4703,3.4747,3.4764,3.4558,3.4558,3.4557,3.4557,0,3.405,3.4113,3.4167,3.4226,3.4267,3.4337,3.4351,3.4392,3.4388,3.4402,3.4491,3.4526,3.4587,3.4613,3.4609,3.472,3.4703,3.4677,3.4626,3.4725,3.4766,3.4782,3.4564,3.4563,3.4561,3.456,0,0,3.419,3.4253,3.4272,3.43,3.4351,3.4399,3.4471,3.4531,3.4566,3.4611,3.467,3.4757,3.4734,3.4768,3.4769,3.4819,3.492,3.4787,3.4788,3.4809,3.5043,3.506,3.508,3.491,3.4913,3.4915,3.5039,0,3.4305,3.4428,3.4434,3.4547,3.4605,3.4589,3.4652,3.469,3.4707,3.476,3.4779,3.484,3.4805,3.4826,3.4876,3.4897,3.4966,3.4889,3.4965,3.4968,3.4951,3.5101,3.5119,3.5233,3.5055,3.5058,3.506,0,3.4454,3.4503,3.4622,3.4667,3.4692,3.4747,3.4804,3.4856,3.49,3.4909,3.4949,3.4944,3.5018,3.4968,3.5071,3.5018,3.5051,3.5067,3.5071,3.5076,3.5017,3.5108,3.527,3.5286,3.5085,3.5083,3.5081,0,3.4542,3.4639,3.4723,3.4747,3.4802,3.4842,3.4866,3.4908,3.4945,3.4996,3.502,3.5079,3.5111,3.5158,3.5169,3.5131,3.5273,3.5222,3.5282,3.5281,3.5309,3.5306,3.5476,3.5335,3.5334,3.5334,3.5334,0,3.4667,3.474,3.4763,3.4814,3.4896,3.4904,3.4985,3.5008,3.5046,3.5102,3.5094,3.5147,3.516,3.5216,3.5226,3.531,3.5325,3.5335,3.5336,3.5334,3.5332,3.5353,3.5344,3.5339,3.5338,3.5337,3.5336,0,3.4777,3.4795,3.4885,3.4931,3.4945,3.5003,3.5043,3.5093,3.5111,3.5182,3.5199,3.5227,3.5293,3.531,3.539,3.5396,3.5495,3.549,3.5479,3.5478,3.5536,3.553,3.5722,3.5748,3.5592,3.5593,3.5595,0,3.4854,3.491,3.4963,3.5,3.5027,3.5087,3.5125,3.5136,3.5176,3.5234,3.5278,3.5343,3.5395,3.5503,3.553,3.5591,3.5586,3.565,3.5595,3.5592,3.5585,3.5581,3.5586,3.5659,3.5661,3.5662,3.5663,0,3.4988,3.4996,3.505,3.511,3.5156,3.5203,3.5249,3.528,3.5298,3.5345,3.5412,3.5453,3.5535,3.56,3.5663,3.569,3.568,3.5681,3.5698,3.5694,3.5685,3.569,3.5505,3.5676,3.5674,3.5673,3.5673,3.5672,3.5082,3.5132,3.5177,3.524,3.5276,3.5319,3.5369,3.5394,3.5451,3.5518,3.5523,3.5596,3.5644,3.5726,3.5758,3.5816,3.5797,3.5821,3.5827,3.5832,3.5836,3.5679,3.5828,3.5828,3.5827,3.5827,3.5827,0,3.5214,3.5244,3.5302,3.5366,3.5416,3.5405,3.5456,3.5498,3.5563,3.5608,3.5661,3.574,3.5804,3.5839,3.5903,3.5944,3.5941,3.596,3.5956,3.5962,3.5851,3.5829,3.5961,3.5961,3.5961,3.5961,3.5961,3.5961,3.5289,3.5372,3.5386,3.5488,3.5517,3.5589,3.562,3.566,3.5696,3.5785,3.5839,3.5862,3.5903,3.5971,3.603,3.6039,3.6062,3.6084,3.609,3.5984,3.597,3.5957,3.5936,3.6089,3.6089,3.6196,3.6197,3.6198]},{"header":{"parameterUnit":"m.s-1","parameterCategory":1,"la1":30.2991,"la2":30.254,"lo1":-89.0895,"lo2":-89.0444,"dy":0.0017,"dx":0.0017,"nx":28,"ny":28,"refTime":"2025-07-21T21:00:00:Z","depth":0,"parameterNumber":3,"parameterNumberName":"V-component_of_WINDS"},"data":[0,0,0,0,0,0,0,0,0,0,0,0,0,0,0,0,0,0,0,0,0,0,0,0,0,0,0,0,0,0,0,0,0,0,0,0,0,0,0,0,0,0,0,0,0,0,0,0,0,0,0,0,0,0,0,0,0,0,3.1281,3.1282,0,3.1415,3.1417,3.1418,3.144,3.1439,3.1438,3.1437,3.1567,3.1572,3.1576,0,0,0,0,0,0,0,0,0,0,0,0,0,3.1037,3.1041,3.1281,3.1282,3.1284,3.1415,3.1417,3.1419,3.1441,3.1439,3.1438,3.1437,3.1566,3.1571,3.1577,0,0,0,0,0,0,0,0,0,0,0,0,0,3.1154,3.1042,3.128,3.1311,3.1315,3.1415,3.1417,3.1419,3.1441,3.1439,3.1438,3.1436,3.1564,3.1571,3.1577,3.1654,0,0,3.1598,3.1601,0,0,0,0,0,0,0,0,3.1147,3.1163,3.1305,3.1309,3.1314,3.141,3.1379,3.1498,3.1441,3.1393,3.1437,3.1435,3.1516,3.1526,3.1555,3.166,3.1665,3.1599,3.1603,3.1606,3.1608,0,0,0,0,0,0,0,3.1139,3.1157,3.1334,3.1307,3.1312,3.1316,3.1331,3.1401,3.1462,3.1397,3.1399,3.1415,3.1518,3.1549,3.1558,3.1667,3.1599,3.1605,3.1609,3.1611,3.1842,3.1844,0,0,0,0,0,0,3.1126,3.115,3.1329,3.1338,3.1225,3.1322,3.1338,3.138,3.1461,3.1472,3.1416,3.1416,3.1538,3.155,3.1563,3.1658,3.1606,3.1612,3.1616,3.184,3.1842,3.1845,0,0,0,0,0,0,3.1121,3.1142,3.1324,3.1245,3.1268,3.1328,3.1375,3.1384,3.1415,3.1476,3.1486,3.1437,3.1537,3.1553,3.1632,3.1663,3.1615,3.1621,3.1838,3.1841,3.1844,3.1849,0,0,0,0,0,0,3.1114,3.114,3.1171,3.1245,3.1272,3.1392,3.1377,3.1388,3.1427,3.1428,3.1498,3.1508,3.1537,3.1621,3.1638,3.1671,3.1627,3.1835,3.1839,3.1843,3.1846,3.1852,3.1856,0,0,0,0,0,3.1105,3.1165,3.1172,3.1194,3.1312,3.1394,3.1409,3.1443,3.143,3.1461,3.15,3.1506,3.1657,3.1629,3.1649,3.1684,3.1833,3.1838,3.1842,3.1844,3.1851,3.1856,0,0,0,0,0,0,3.1089,3.1175,3.1184,3.127,3.1325,3.1398,3.1437,3.1449,3.1507,3.1504,3.1542,3.1557,3.1634,3.1667,3.1634,3.1763,3.1744,3.1752,3.1738,3.1745,3.175,3.174,3.1632,0,0,0,0,0,3.1097,3.1158,3.1229,3.1298,3.1325,3.1377,3.1413,3.1435,3.1492,3.1515,3.156,3.1613,3.1673,3.1711,3.1769,3.1851,3.1867,3.1885,3.1891,3.1895,3.1901,3.1948,3.1957,3.186,3.186,3.186,0,0,3.111,3.1165,3.1201,3.1296,3.1341,3.1402,3.1396,3.146,3.1505,3.1523,3.1601,3.1636,3.1698,3.1779,3.1817,3.1809,3.1932,3.19,3.1903,3.1908,3.1953,3.1962,3.197,3.1863,3.1862,3.1862,0,0,3.1168,3.1216,3.1279,3.1325,3.1395,3.1429,3.1444,3.1516,3.1541,3.162,3.1636,3.1689,3.1791,3.1834,3.187,3.1946,3.1954,3.1964,3.1991,3.2036,3.2043,3.205,3.2077,3.2086,3.1971,3.1971,3.1971,0,3.1175,3.127,3.1309,3.1374,3.1415,3.1439,3.1502,3.1544,3.1628,3.1655,3.1646,3.1776,3.1818,3.191,3.1929,3.1957,3.1975,3.1955,3.2039,3.2047,3.2054,3.208,3.209,3.1972,3.1971,3.1971,3.1971,0,3.1277,3.1342,3.1385,3.1469,3.1515,3.1578,3.1625,3.1667,3.1686,3.172,3.1801,3.1854,3.1924,3.1947,3.1964,3.2042,3.2035,3.2032,3.2014,3.2063,3.2088,3.2099,3.1973,3.1972,3.1972,3.1972,0,0,3.1325,3.1432,3.1447,3.1486,3.1566,3.1616,3.1681,3.1752,3.1787,3.1844,3.1899,3.1986,3.1985,3.2025,3.2048,3.2087,3.2145,3.208,3.2082,3.209,3.2233,3.2235,3.2246,3.2151,3.2153,3.2154,3.2228,0,3.1391,3.151,3.1548,3.1646,3.1707,3.1731,3.1788,3.1842,3.1877,3.1932,3.1969,3.203,3.2024,3.2049,3.2089,3.2129,3.2174,3.2124,3.22,3.2202,3.2183,3.2259,3.226,3.2327,3.2238,3.224,3.2241,0,3.1483,3.1546,3.1651,3.1725,3.1752,3.1802,3.1872,3.1925,3.1986,3.2009,3.2056,3.2076,3.2143,3.2122,3.2214,3.218,3.2213,3.2238,3.2241,3.2249,3.2224,3.2268,3.2349,3.2359,3.2257,3.2256,3.2255,0,3.1508,3.1618,3.1696,3.1729,3.1817,3.1852,3.1889,3.195,3.1991,3.2051,3.2078,3.2143,3.2179,3.2229,3.2266,3.2247,3.2355,3.2337,3.2374,3.2373,3.2394,3.2392,3.2482,3.2417,3.2417,3.2417,3.2417,0,3.1577,3.164,3.1709,3.1756,3.1828,3.1871,3.194,3.1978,3.2033,3.2087,3.2111,3.2161,3.2207,3.2263,3.2292,3.2364,3.238,3.2399,3.2406,3.2397,3.2394,3.2418,3.2414,3.242,3.2419,3.2418,3.2418,0,3.1615,3.1664,3.175,3.1828,3.1849,3.1898,3.1964,3.201,3.2048,3.2116,3.2134,3.2191,3.2259,3.2301,3.2385,3.2405,3.2484,3.249,3.2464,3.2467,3.2502,3.2498,3.2609,3.2626,3.2551,3.2551,3.2552,0,3.1655,3.1705,3.179,3.183,3.1869,3.1932,3.1975,3.202,3.2063,3.2139,3.2176,3.2246,3.2304,3.241,3.2457,3.2522,3.2529,3.2563,3.2538,3.2528,3.2529,3.2525,3.2531,3.2567,3.2567,3.2568,3.2568,0,3.1722,3.1744,3.1807,3.1879,3.1931,3.1989,3.2047,3.2077,3.2131,3.2179,3.225,3.2295,3.2384,3.2452,3.2522,3.2558,3.2572,3.2576,3.2588,3.2579,3.2562,3.2572,3.2475,3.2573,3.2573,3.2572,3.2572,3.2572,3.1762,3.1808,3.1876,3.1945,3.1994,3.2049,3.2097,3.2141,3.2202,3.228,3.2302,3.2376,3.2437,3.2533,3.2572,3.2629,3.2624,3.2641,3.2645,3.2649,3.265,3.2554,3.2641,3.2641,3.2641,3.2641,3.2641,0,3.1829,3.1875,3.1939,3.2021,3.2076,3.2088,3.2153,3.2197,3.2263,3.2321,3.2379,3.246,3.2528,3.2582,3.2651,3.2686,3.2694,3.2703,3.27,3.2708,3.265,3.2633,3.2695,3.2695,3.2695,3.2695,3.2695,3.2695,3.1871,3.195,3.1981,3.2084,3.2129,3.2204,3.2241,3.229,3.2337,3.2428,3.2486,3.2522,3.2578,3.2652,3.2714,3.2728,3.2752,3.2759,3.2774,3.2718,3.2712,3.2706,3.269,3.2764,3.2764,3.2827,3.2828,3.2828]}]]